Wind_Speed
36 36 37 36 35 35 36 38 38 38 37 37 37 39 40 40 41 41 41 40 41 43 43 43 44 43 42 41 40 39 38 38 38 39 40 40 40 42 43 44 45 45 47 48 50 53 56 58 59 60 60 60 59 59 60 61 61 62 62 62 64 66 67 68 68 67 66 65 64 64 62 60 56 52 49 46 45 44 42 39 39 38 38 37 38
38 39 40 40 39 38 38 39 39 39 39 39 39 40 40 41 41 41 41 42 43 44 44 44 44 44 44 43 43 42 41 41 41 41 41 42 42 43 45 46 46 47 48 49 52 55 58 59 59 59 59 59 60 60 61 61 62 63 64 64 65 67 68 68 68 68 66 65 65 64 61 57 54 50 47 45 43 43 42 39 37 38 39 39 39
40 41 42 43 43 43 42 41 41 41 41 41 41 41 41 41 41 41 42 43 44 44 44 44 45 46 46 46 45 45 44 44 44 44 43 44 45 45 46 46 47 48 49 51 53 56 58 58 58 58 58 59 60 61 62 62 63 65 66 66 66 67 68 69 68 67 66 65 64 63 59 55 52 49 46 44 42 42 42 40 37 37 39 41 40
43 44 44 45 45 45 45 44 42 40 40 40 41 40 40 41 41 42 42 43 44 44 45 45 46 47 48 47 47 47 47 47 47 46 45 45 46 47 47 47 47 48 50 53 55 57 58 57 57 58 59 60 61 62 63 64 65 66 67 68 68 68 68 69 68 67 66 64 63 61 57 53 50 48 46 43 42 42 42 41 38 36 39 43 43
45 45 45 45 45 44 44 43 42 41 41 40 40 40 41 42 42 42 44 45 45 46 46 47 47 48 48 48 48 48 49 49 48 47 46 46 47 47 47 48 49 51 53 55 56 56 57 58 59 59 60 60 62 63 64 65 66 67 68 69 69 68 68 68 68 67 65 63 62 61 58 54 51 49 47 44 43 42 42 42 40 37 38 42 45
47 46 45 45 44 42 42 42 43 43 43 43 44 44 44 44 43 43 44 45 47 47 48 48 48 48 48 48 49 50 50 49 49 48 48 48 47 46 47 48 50 53 55 55 55 56 57 59 60 61 61 62 63 64 65 67 68 69 69 70 70 69 68 67 67 67 65 63 62 62 60 56 52 50 47 45 44 43 43 43 42 39 38 41 45
46 44 43 42 42 42 43 45 45 45 46 47 48 48 47 44 43 43 44 45 47 48 48 48 48 48 48 49 50 51 50 49 50 50 50 48 47 47 48 49 50 52 54 55 56 57 59 60 61 61 62 63 65 66 67 68 70 70 70 70 70 69 68 67 67 67 67 65 64 63 61 57 54 51 48 46 45 45 45 44 44 42 39 39 44
40 38 39 40 42 43 46 49 48 49 50 51 51 50 48 45 44 43 44 45 46 47 48 48 48 48 48 50 51 51 50 50 51 51 50 48 48 48 49 51 51 52 54 56 58 59 60 61 62 63 64 65 66 68 69 70 70 71 70 70 69 68 68 67 67 67 67 66 64 62 61 58 55 52 49 47 46 46 46 46 46 44 42 40 42
37 38 39 42 45 48 51 53 54 54 54 53 52 50 47 45 44 43 44 44 44 45 46 47 47 48 49 50 51 51 51 52 52 50 49 49 49 50 51 52 53 54 56 58 59 60 61 62 63 64 65 67 68 69 70 70 71 71 70 70 69 69 69 69 68 68 67 65 63 61 60 58 55 53 50 48 47 47 47 47 47 46 45 42 42
41 42 44 46 49 53 55 56 55 54 53 51 49 47 45 44 43 43 43 43 43 44 45 46 47 48 49 50 51 51 52 52 51 50 50 50 51 52 52 53 54 56 58 60 61 62 63 64 65 66 67 68 69 70 70 71 71 71 70 70 70 70 71 70 69 68 66 65 63 60 59 58 56 54 51 49 48 48 47 47 48 48 47 45 44
45 46 47 49 51 53 54 52 49 48 48 46 45 43 42 42 42 42 42 42 42 43 44 45 46 48 49 50 52 52 52 52 51 51 51 51 52 52 53 55 57 59 60 61 63 64 65 65 66 67 68 69 69 70 70 71 71 70 70 71 71 71 71 71 70 68 66 65 63 61 59 58 56 54 53 50 49 48 47 46 47 48 48 48 46
47 46 46 48 49 51 50 47 45 45 44 42 40 40 40 40 40 40 40 41 41 42 44 45 47 48 50 52 53 53 52 52 52 52 52 52 53 54 55 57 59 60 62 63 65 66 66 67 68 68 69 69 70 70 70 70 71 71 71 72 72 72 72 71 69 68 66 65 64 62 61 59 57 56 54 52 50 49 47 46 46 47 48 49 49
44 43 45 47 49 49 47 46 46 45 42 37 36 37 38 38 39 39 39 40 42 43 45 46 48 50 52 53 53 52 52 53 53 53 53 53 54 55 57 59 61 62 64 65 66 67 68 68 69 69 69 70 70 70 70 71 71 72 73 73 73 73 72 71 70 69 67 66 65 64 62 61 60 58 57 55 53 51 49 47 46 47 48 50 52
45 47 49 50 50 48 47 47 46 44 40 37 38 39 38 38 38 39 40 42 43 45 46 48 50 52 52 52 52 53 53 53 53 53 53 54 56 58 60 61 62 64 65 67 68 68 69 69 70 70 70 69 69 70 70 72 73 74 74 74 74 73 72 71 70 69 68 67 66 65 63 62 61 60 59 57 55 53 52 50 47 47 48 50 52
50 51 50 50 50 50 50 48 45 42 40 39 40 40 39 39 39 40 42 43 45 47 49 50 51 52 52 52 53 53 53 52 52 52 53 55 58 60 62 63 64 65 67 67 68 69 69 69 69 69 69 69 70 71 72 73 74 75 75 74 74 73 72 71 70 69 68 67 66 65 64 63 62 61 60 58 56 55 54 53 50 48 49 50 53
48 48 50 51 51 50 48 45 42 41 40 41 41 41 41 41 41 42 44 46 48 50 51 51 51 51 51 52 53 52 52 51 52 53 55 58 60 62 63 64 66 67 68 68 68 69 69 68 68 68 69 70 71 73 74 74 74 74 73 73 72 71 70 70 69 69 68 68 67 66 65 64 64 62 61 60 57 56 55 55 53 51 51 52 53
47 49 51 52 49 46 44 42 40 40 41 41 43 44 44 43 43 44 45 47 49 50 51 51 50 51 52 51 50 49 50 51 54 56 58 60 62 63 64 66 67 68 68 68 68 68 67 68 68 69 71 72 73 74 74 73 73 72 71 70 70 69 69 70 70 70 70 70 70 69 67 66 65 64 63 61 59 58 56 55 55 54 54 54 55
50 51 51 49 46 44 43 42 42 43 44 45 46 47 48 47 46 45 46 47 49 49 49 49 50 51 51 49 48 48 51 54 56 57 59 61 63 64 66 67 68 68 68 68 67 66 67 68 69 71 72 73 73 73 72 71 70 69 69 69 69 69 70 71 72 73 73 73 72 71 69 67 65 64 63 62 61 60 58 56 55 56 57 57 58
53 53 52 47 44 44 45 45 46 46 47 48 49 51 51 50 47 46 46 46 46 46 46 48 49 49 48 48 49 52 54 56 57 58 60 63 64 66 67 68 68 68 67 66 66 67 68 69 70 71 72 72 71 70 69 69 68 68 68 69 70 71 72 74 75 76 76 76 74 72 70 67 65 64 62 61 60 60 59 57 56 57 59 60 61
53 53 51 45 43 45 47 48 49 49 49 51 52 54 53 50 47 45 43 42 42 43 45 47 47 47 48 50 53 55 57 58 59 60 62 64 66 67 68 68 68 67 66 66 67 68 69 70 71 71 70 69 69 69 68 67 67 68 70 72 73 74 75 75 76 77 77 76 75 73 70 67 64 62 61 60 59 58 58 58 57 57 59 61 63
50 50 46 42 43 46 48 49 50 50 51 53 54 54 52 49 46 43 41 40 41 43 44 46 47 49 51 53 55 57 59 60 62 64 64 65 66 67 67 67 66 66 67 67 68 70 71 72 71 70 69 68 68 68 68 68 69 71 73 74 75 75 76 76 76 76 75 74 72 71 69 66 63 60 59 58 57 56 56 57 57 57 58 62 65
46 46 44 44 45 47 48 50 51 51 53 54 53 52 50 48 45 41 40 40 41 43 45 47 51 53 55 56 57 60 62 64 65 66 66 67 67 66 65 64 64 65 67 67 68 70 70 70 69 69 68 68 68 69 70 71 72 73 75 75 76 76 76 76 75 74 72 71 69 67 66 64 61 58 56 55 54 54 54 54 56 56 57 61 67
45 45 44 45 46 48 49 50 51 52 53 53 51 51 50 47 43 41 40 41 43 46 49 52 55 56 57 58 60 62 65 66 67 67 68 68 67 66 64 64 64 65 67 68 68 68 68 67 67 68 68 69 70 71 72 72 73 74 74 75 75 75 74 73 72 71 70 69 67 66 63 61 60 57 55 53 51 51 52 52 53 55 56 60 66
48 48 47 46 46 47 49 50 51 52 52 52 51 52 49 44 41 42 43 45 48 51 54 55 56 57 59 61 63 65 67 67 68 68 68 67 65 64 64 64 65 65 67 68 68 67 67 67 68 68 69 70 72 73 73 74 74 74 74 74 74 72 70 69 68 68 68 67 67 65 63 60 58 56 54 53 51 49 49 50 51 53 56 58 64
50 49 49 48 47 48 48 50 52 52 52 52 52 51 48 44 43 45 48 50 52 54 55 56 58 60 62 63 65 67 67 68 68 68 66 64 64 64 64 65 66 66 66 66 67 67 67 68 69 70 71 73 74 75 75 75 74 74 74 73 71 68 66 65 66 65 65 65 64 62 61 59 57 54 52 50 50 48 47 48 50 52 55 57 62
49 48 48 48 49 50 51 52 52 53 53 53 52 50 49 48 49 50 52 53 54 55 56 58 60 62 63 65 66 67 68 68 67 66 64 63 63 63 64 65 67 67 66 65 66 68 68 69 70 73 75 75 76 76 76 75 75 74 73 71 68 65 63 63 64 62 61 62 62 59 56 55 55 53 50 47 47 47 46 46 48 50 54 57 60
48 48 48 50 51 51 52 53 53 54 54 53 52 51 51 51 52 53 54 54 55 57 59 60 62 63 65 66 67 67 67 66 65 63 62 62 63 63 64 65 66 66 66 66 66 68 69 71 72 75 77 78 78 78 77 76 75 75 73 69 65 62 61 61 61 60 58 59 59 56 52 51 51 51 48 45 43 44 45 45 46 49 53 56 59
48 49 51 51 51 51 52 54 55 55 54 53 52 52 53 53 54 55 55 56 57 59 61 62 63 65 66 66 67 66 65 63 62 61 61 62 62 64 65 66 65 65 66 67 67 68 70 73 75 77 78 80 80 80 78 77 76 75 71 67 63 60 58 57 57 56 55 56 56 53 49 47 47 48 47 43 41 41 43 43 44 47 51 56 59
48 50 50 50 50 52 53 55 55 55 54 53 53 54 54 54 55 56 56 57 59 61 62 64 65 66 66 66 66 64 62 60 59 60 60 61 63 65 65 65 65 66 67 68 69 70 72 75 77 79 80 80 81 80 79 77 76 74 70 65 61 57 55 52 51 50 49 51 53 50 47 44 43 43 43 41 39 39 40 41 42 45 49 55 58
48 49 48 48 50 52 54 54 54 54 54 54 55 56 55 55 56 57 58 59 61 63 64 64 65 65 65 64 62 60 59 58 58 59 61 62 64 65 65 65 65 66 67 68 70 72 74 76 79 80 81 81 81 80 79 77 75 72 69 65 60 55 53 50 48 46 44 45 48 47 44 42 40 39 39 38 37 36 38 39 40 42 47 53 57
47 48 48 49 51 53 54 54 54 55 55 56 57 57 55 56 57 59 60 62 63 63 64 64 64 64 62 60 58 58 57 57 58 60 61 63 64 64 64 65 66 67 67 69 71 74 76 78 79 80 81 81 80 80 79 77 74 71 69 65 60 55 52 50 47 45 42 40 43 44 42 40 38 35 35 35 34 34 36 37 38 40 44 52 57
47 48 49 50 52 54 55 56 56 56 57 58 58 57 56 57 59 61 62 62 63 64 64 63 62 60 58 57 56 56 56 57 58 61 63 64 64 64 65 65 66 67 68 70 72 75 77 78 79 79 80 80 80 80 79 76 73 71 69 66 62 57 53 50 48 46 42 37 37 40 39 38 37 35 32 32 31 31 33 35 37 39 42 49 56
49 50 51 52 54 55 56 57 58 58 59 60 59 57 58 59 60 61 62 62 63 62 61 59 58 56 55 55 55 55 55 57 59 61 63 63 63 65 66 66 67 68 70 72 74 76 77 78 79 78 79 79 79 79 78 75 72 70 69 67 64 61 57 52 49 47 43 37 34 35 36 36 35 35 32 30 29 29 31 34 35 37 41 47 55
51 52 52 54 55 57 58 59 59 60 61 60 59 58 59 60 61 62 62 62 60 59 57 56 55 53 53 53 53 54 56 57 59 62 63 63 64 65 67 67 68 69 71 73 75 76 77 78 78 78 78 78 79 80 77 73 70 69 69 68 66 64 61 56 51 48 45 40 34 33 34 34 33 34 33 31 29 28 29 32 34 36 39 45 53
52 52 53 55 56 58 59 60 60 61 60 59 58 59 59 60 61 61 60 58 56 55 54 53 52 52 52 53 54 55 57 59 61 62 62 63 64 66 67 67 68 69 71 73 74 76 77 77 77 77 77 78 79 80 78 73 69 68 68 69 68 67 64 60 55 50 47 43 36 32 33 33 33 32 33 32 30 28 28 31 33 35 38 44 52
52 54 55 56 57 58 59 59 59 59 58 58 58 58 59 59 59 58 56 54 53 52 52 51 51 51 53 55 56 57 59 60 61 62 62 63 65 66 67 67 68 69 71 72 74 75 76 76 76 76 76 77 78 79 77 73 69 67 68 69 69 68 64 61 59 54 48 45 41 36 33 34 33 32 32 32 32 30 29 30 32 34 38 43 50
53 54 55 56 56 57 56 56 56 56 56 57 57 57 57 56 55 53 52 51 49 49 50 50 51 53 55 56 57 58 60 61 61 62 63 64 66 67 67 67 68 70 71 72 74 75 75 74 75 75 75 76 78 78 76 72 68 67 68 69 69 68 64 60 60 58 51 46 44 41 37 35 34 32 32 33 32 32 30 29 31 33 37 42 48
51 52 52 53 53 53 53 53 54 54 55 55 55 54 53 52 51 50 48 47 47 50 51 51 53 55 56 57 58 60 62 61 61 63 64 65 66 67 67 67 68 70 71 73 75 76 75 74 73 74 74 76 78 77 76 72 68 66 67 68 68 68 65 60 58 58 54 47 44 44 42 39 36 34 32 32 33 33 32 30 31 32 36 40 47
47 47 48 48 49 49 50 51 51 52 52 52 52 51 50 49 48 47 45 47 50 52 52 52 54 55 56 57 59 61 62 62 62 64 65 66 66 67 68 68 69 71 72 74 76 76 74 73 72 73 73 76 77 76 75 72 69 67 67 66 65 65 64 60 57 57 56 50 44 42 43 42 39 37 33 31 31 32 32 31 31 32 34 38 45
43 44 45 46 46 47 48 48 48 49 49 49 49 49 48 47 45 45 47 50 53 54 53 54 55 56 57 58 60 62 63 63 64 65 66 67 67 68 69 69 70 72 73 75 76 75 73 72 72 72 73 75 76 75 74 71 68 67 66 65 63 63 63 61 58 56 56 53 46 39 38 40 40 39 36 33 30 30 32 32 32 32 33 36 42
41 42 43 43 44 44 44 44 45 45 46 47 47 47 47 47 48 50 52 55 56 56 55 56 57 57 58 59 61 63 64 64 65 67 67 67 68 68 70 70 72 73 74 76 77 75 72 71 71 71 73 75 75 74 72 69 67 65 65 64 62 62 62 61 59 57 55 55 50 41 34 33 36 37 37 36 33 30 30 32 32 33 34 36 39
40 40 41 41 41 40 40 40 41 43 45 46 47 48 50 52 54 56 56 58 59 58 59 59 59 58 58 60 63 64 64 65 67 67 67 68 69 70 71 72 72 73 75 76 77 74 71 70 70 70 72 74 74 72 70 69 67 65 63 62 61 60 60 59 58 57 55 54 54 48 36 29 31 34 35 36 36 34 31 31 32 33 34 36 38
39 39 40 39 38 37 37 39 41 43 45 47 49 53 55 57 59 59 60 61 61 61 61 61 59 58 59 61 63 63 64 66 67 67 68 69 70 71 72 72 73 74 76 77 77 74 71 69 69 69 71 72 72 70 69 68 67 65 63 61 60 59 57 56 55 55 53 51 51 51 44 32 28 32 34 34 34 35 34 33 33 33 34 36 38
40 40 39 36 34 35 37 38 41 45 48 49 53 56 59 61 62 63 63 64 63 63 62 60 59 59 61 62 63 64 65 66 67 68 69 70 71 72 73 73 74 75 76 77 75 72 70 69 68 68 70 71 70 69 68 67 66 65 62 60 59 58 56 55 54 52 51 49 48 49 49 41 33 32 35 34 33 33 35 35 34 34 34 35 38
43 42 40 37 36 37 37 39 43 48 51 52 55 58 60 62 64 66 66 66 65 64 62 60 60 61 62 63 63 64 65 66 68 69 70 71 72 72 73 74 75 76 77 76 73 71 69 68 67 67 68 69 68 67 67 66 66 64 61 59 58 58 57 56 54 50 48 47 47 47 49 48 41 36 36 36 34 32 33 35 35 35 35 35 37
44 44 42 41 41 40 40 42 46 49 51 54 57 59 62 64 67 68 68 67 65 64 63 63 63 63 63 64 63 63 65 67 69 70 71 71 72 72 73 74 75 77 77 74 71 70 69 68 66 66 67 67 67 66 65 65 65 63 60 58 57 57 57 56 54 51 48 46 46 45 46 48 47 42 38 37 36 33 31 33 34 34 35 35 36
40 42 42 42 42 42 43 46 48 50 53 57 60 62 64 67 69 70 70 68 66 65 65 66 66 65 64 64 63 64 66 68 70 71 71 71 71 72 72 74 75 76 75 71 69 68 68 67 66 65 65 66 65 65 65 64 64 63 62 60 59 57 56 56 55 53 50 47 45 44 44 45 47 46 41 37 36 33 30 30 33 33 33 34 35
35 38 40 41 43 44 47 49 50 52 56 61 64 66 67 69 71 71 70 68 68 68 69 69 67 66 65 64 64 66 68 70 71 72 72 72 72 72 72 74 75 74 72 69 68 67 66 66 66 65 64 64 64 65 65 64 64 64 63 62 61 58 56 56 56 54 50 47 45 43 43 42 44 46 44 39 36 32 28 27 30 31 30 31 33
35 38 41 43 46 47 49 50 51 54 59 64 66 68 70 71 72 71 70 69 69 71 71 70 67 65 65 65 66 68 70 72 73 73 73 73 73 73 74 74 73 72 70 69 67 66 66 66 66 66 65 64 64 64 65 65 64 64 63 62 61 59 57 55 55 54 50 47 45 43 43 42 42 44 45 43 38 31 25 24 26 28 28 28 29
39 41 41 43 46 48 48 48 50 56 61 64 66 68 71 72 72 71 70 70 71 73 72 69 66 65 65 66 68 70 71 73 74 75 75 75 74 74 74 73 71 70 69 68 67 65 65 66 67 67 66 66 65 64 65 65 64 63 62 62 61 60 59 56 54 52 50 47 45 43 42 42 41 41 42 43 41 36 29 25 25 26 26 26 25
41 41 41 42 44 44 43 44 49 57 63 65 66 68 70 71 71 71 70 71 73 73 70 67 65 65 66 68 70 71 72 74 76 77 77 77 76 75 73 70 69 68 68 68 66 64 64 66 68 69 69 68 66 66 64 63 63 63 62 62 61 61 60 57 54 52 49 46 44 42 40 39 40 39 37 35 36 36 33 29 26 26 25 25 24
Wind_Direction
288 289 290 291 291 290 290 290 291 291 292 293 294 295 295 295 295 297 297 296 296 297 298 297 296 296 296 296 296 296 296 295 294 293 293 293 293 293 294 295 296 297 298 298 299 299 299 299 298 298 298 298 299 300 300 301 301 301 301 301 300 300 300 299 299 299 300 301 301 301 301 301 299 297 294 290 287 283 281 279 276 271 265 261 258
290 290 291 291 291 290 290 290 291 291 292 292 293 293 292 291 291 292 291 291 292 293 293 293 294 294 295 295 295 296 296 296 295 295 294 294 294 294 294 295 297 298 298 298 298 297 297 297 297 297 297 298 299 300 300 301 301 300 300 300 299 299 299 298 299 299 300 301 301 300 300 299 298 295 292 288 285 282 280 277 273 268 261 258 257
292 291 291 292 293 293 292 292 292 292 292 292 292 291 291 290 290 289 287 287 288 288 288 289 291 293 293 294 295 295 296 296 296 295 294 294 294 294 294 295 296 297 297 297 297 296 296 296 297 297 298 299 299 300 300 300 300 300 299 299 298 298 298 298 299 299 300 300 300 299 298 298 296 293 290 286 283 280 278 275 271 266 258 254 255
293 292 292 293 295 295 296 297 297 296 295 293 292 292 292 292 291 289 288 287 286 286 286 287 289 291 292 292 293 294 295 296 295 294 294 293 293 294 294 295 295 296 296 295 295 294 295 297 298 298 299 299 300 300 300 300 299 299 298 298 298 298 298 298 299 299 300 299 298 297 296 296 294 292 289 285 281 278 276 274 269 264 256 251 252
292 292 293 294 295 296 297 298 299 298 298 297 295 294 295 294 293 291 289 287 286 286 286 287 289 290 291 291 292 294 295 295 294 293 292 292 293 293 294 294 295 295 293 293 293 294 296 298 299 299 299 299 300 299 299 299 298 298 298 298 298 298 299 299 299 299 299 298 297 296 295 294 292 290 287 284 281 277 274 273 269 263 256 248 247
291 292 293 294 295 296 297 299 298 297 297 297 297 297 296 294 292 290 288 286 286 285 286 287 288 290 290 290 291 293 294 293 293 292 292 293 294 294 293 293 292 292 291 293 295 297 298 299 300 300 300 300 300 299 299 298 298 298 298 298 298 299 299 299 299 298 298 297 296 295 294 293 291 288 286 283 280 276 273 271 268 263 256 248 244
291 291 292 294 295 295 299 300 298 296 295 295 296 297 295 293 291 288 287 286 285 285 286 287 288 289 289 289 291 292 292 291 292 293 294 294 294 294 293 292 292 291 293 296 298 299 299 300 300 300 300 300 300 299 299 298 298 298 298 298 299 299 299 298 298 297 297 296 296 295 293 292 290 287 284 281 277 275 272 270 267 263 256 249 242
293 293 292 293 293 295 299 301 299 297 296 294 295 295 294 292 290 287 286 286 286 286 286 287 288 289 289 289 291 292 291 291 293 294 294 294 293 292 292 292 293 294 296 298 299 300 300 300 301 301 301 300 300 299 299 298 298 299 299 299 298 298 298 297 297 296 296 296 295 294 293 291 289 287 283 280 276 273 271 268 266 262 256 249 241
294 293 292 292 293 295 298 300 299 298 297 295 294 294 292 290 289 287 286 286 286 286 287 288 288 289 289 289 290 291 292 292 293 293 292 292 292 292 293 294 295 296 298 300 300 301 301 301 301 301 301 300 299 299 298 298 299 299 299 299 298 298 297 297 296 296 295 294 294 293 292 290 288 286 283 279 275 272 269 267 265 261 255 248 240
290 290 292 292 293 294 296 299 300 299 297 295 294 293 290 289 288 287 287 287 287 288 288 289 289 289 289 289 291 292 293 293 293 292 292 292 292 293 294 296 297 299 300 301 302 302 302 302 301 301 300 299 299 299 299 299 299 299 298 298 298 297 297 297 296 295 295 293 292 291 290 289 287 285 282 278 275 272 268 265 263 259 254 248 239
288 290 292 292 293 294 297 301 303 302 300 298 296 294 291 289 289 288 288 288 289 289 289 289 290 289 290 291 292 293 293 292 292 291 292 292 293 294 296 298 299 301 302 303 303 303 302 301 300 300 299 299 299 299 299 299 299 299 298 298 297 297 297 296 296 295 294 292 291 290 288 286 285 283 281 278 275 272 268 264 260 258 253 247 239
288 289 291 292 294 296 298 302 306 307 305 301 298 296 294 292 291 290 290 290 290 290 289 289 289 290 291 292 293 292 292 291 291 292 292 293 294 296 299 301 302 303 304 304 303 302 301 301 300 300 300 299 299 299 299 299 299 299 298 298 297 297 296 295 295 294 292 291 290 289 287 285 283 281 279 277 275 271 267 263 258 256 252 246 239
287 288 290 293 295 298 301 305 309 309 305 302 302 302 300 297 294 292 292 291 290 289 289 289 290 291 292 293 293 292 291 291 291 292 293 295 297 300 302 303 304 304 304 303 302 302 301 301 300 300 300 299 299 300 300 300 299 299 298 298 297 297 296 295 294 293 291 290 288 287 285 283 282 280 278 275 273 270 267 262 257 253 250 245 240
288 290 291 293 297 301 303 306 307 305 300 301 307 308 305 301 297 293 291 289 287 287 288 289 291 293 293 293 293 292 291 292 293 294 295 297 300 303 304 305 304 304 303 303 302 302 301 301 300 300 300 300 300 300 300 300 300 299 299 298 298 297 296 295 294 292 291 289 288 286 284 282 280 278 276 274 271 269 265 261 255 251 249 245 240
289 290 291 294 298 301 302 303 302 299 296 301 308 309 307 303 297 291 288 286 285 286 287 289 292 293 293 294 293 292 292 293 294 296 298 300 303 305 305 305 304 304 303 302 302 301 300 300 300 300 301 301 301 301 301 301 301 301 300 300 299 298 298 296 295 294 292 290 288 286 284 282 280 278 276 273 270 267 264 260 255 249 247 244 239
289 290 292 296 300 301 300 298 295 295 296 301 307 309 307 302 295 290 286 284 284 285 286 289 291 293 293 293 292 292 293 295 297 298 300 303 304 305 305 304 304 303 303 302 301 301 301 301 301 302 302 302 302 302 302 302 302 302 302 301 300 300 299 297 296 294 292 290 288 286 284 282 280 278 275 272 269 265 262 258 254 248 244 242 239
288 291 295 298 301 300 297 293 292 295 298 303 307 309 308 302 295 291 288 286 285 286 287 289 292 293 293 292 292 292 295 298 299 301 302 304 305 304 305 304 304 303 302 301 301 302 302 302 303 303 303 303 304 304 304 304 304 303 303 302 301 300 299 298 296 294 292 290 288 286 284 281 279 277 274 272 269 265 261 257 252 247 242 239 237
291 295 298 300 300 297 292 291 293 297 300 303 307 308 307 304 298 294 291 289 288 288 289 292 294 293 293 292 292 293 296 298 299 301 303 304 304 304 304 304 303 302 302 302 302 302 302 303 303 304 304 305 305 305 305 305 305 305 304 303 302 300 299 298 297 296 294 292 290 288 286 283 280 277 274 272 269 266 262 256 251 246 241 237 235
295 297 298 299 297 293 291 292 296 299 301 303 304 305 306 304 300 296 293 291 291 292 293 294 294 293 293 293 294 295 297 298 300 302 303 304 304 304 304 303 302 302 302 302 302 303 303 304 304 305 306 306 306 306 306 306 306 305 304 303 302 301 300 300 299 298 296 294 292 290 287 284 282 278 275 271 268 265 262 257 250 245 240 236 233
294 295 296 296 293 291 291 293 296 299 301 301 302 304 305 303 300 297 296 295 295 296 296 295 294 294 295 296 296 298 299 300 301 302 304 304 304 304 303 303 303 303 303 303 303 304 305 306 306 307 307 307 307 307 307 307 307 307 306 305 304 303 301 300 299 298 296 294 292 290 288 285 282 279 275 272 268 264 261 258 251 244 239 235 232
294 294 294 291 289 288 290 292 295 298 300 300 301 303 304 302 300 299 299 300 299 298 296 295 295 296 298 298 299 300 301 302 302 303 304 304 304 304 304 304 304 304 304 305 306 307 308 308 308 308 308 308 308 308 307 308 308 309 308 307 305 304 303 301 300 298 296 293 292 290 289 286 283 279 275 272 268 264 260 257 253 245 238 234 231
293 293 292 289 286 286 288 290 292 295 298 299 301 303 303 302 302 302 303 302 299 297 296 297 298 299 300 300 300 301 301 302 303 304 305 305 305 304 304 303 304 305 306 307 308 308 309 309 309 309 309 309 309 309 309 310 310 310 309 308 306 305 304 303 301 299 297 295 293 291 289 287 285 282 277 272 268 264 260 255 252 247 239 233 230
289 291 291 288 286 285 287 290 292 294 297 298 300 303 304 304 303 303 301 298 297 297 298 299 300 300 301 301 301 301 302 303 304 305 305 305 305 305 304 304 305 306 308 308 309 309 309 309 310 310 310 310 310 311 312 312 312 311 310 308 308 307 306 304 302 300 298 297 295 292 290 288 286 283 280 275 269 263 259 255 251 247 241 233 230
287 288 288 287 286 285 287 290 293 294 296 298 300 303 305 303 301 299 297 295 297 299 299 299 300 300 301 301 302 303 304 305 305 306 306 306 305 305 305 306 307 309 309 310 310 311 311 311 311 311 311 312 312 313 314 314 314 313 311 310 310 309 307 305 303 301 299 298 296 294 292 290 287 283 280 276 271 264 258 254 249 245 241 234 229
287 287 286 287 287 287 289 291 292 293 295 297 301 303 303 299 296 295 294 296 298 299 298 299 300 300 301 302 303 304 305 306 306 306 306 306 305 306 307 309 310 310 311 312 312 312 313 313 313 313 314 315 315 316 316 316 316 315 313 313 312 311 309 306 303 302 300 297 295 294 293 291 288 284 280 276 272 266 259 252 247 242 239 235 229
286 286 286 286 287 288 289 290 290 292 294 297 300 302 300 297 295 295 295 297 298 298 298 299 300 301 302 303 304 305 305 306 306 306 306 306 306 308 309 311 312 312 313 314 314 314 314 315 315 316 317 317 318 318 318 318 318 317 315 315 314 313 311 309 306 304 302 299 297 295 293 291 288 285 282 277 272 267 260 252 245 240 237 234 229
283 283 284 285 286 287 288 288 289 291 294 297 299 300 299 297 296 296 297 297 298 298 299 300 301 302 303 304 305 305 305 306 306 306 306 307 308 310 311 313 314 315 315 315 315 315 316 316 317 318 319 320 320 320 320 321 321 319 318 318 318 317 314 312 309 307 305 301 298 297 295 291 288 286 283 278 272 266 261 253 245 239 235 233 229
280 281 282 284 285 285 286 286 287 290 293 296 298 299 299 298 297 297 298 298 298 299 300 301 302 303 304 305 305 305 306 307 306 306 307 308 310 312 314 315 316 317 317 317 317 317 317 318 319 320 321 321 322 322 323 324 323 321 321 321 320 319 316 314 312 310 307 303 300 298 296 292 288 285 283 279 272 266 261 254 247 238 233 232 229
279 280 281 282 283 283 283 285 287 290 293 295 298 299 299 298 297 297 298 298 298 299 300 301 303 304 305 305 305 306 307 307 307 308 309 311 313 315 316 317 318 318 318 318 318 319 320 321 321 322 322 323 323 324 325 326 325 323 322 322 321 320 318 316 313 310 307 304 301 300 298 294 289 285 283 279 273 266 260 254 247 239 232 230 229
277 278 279 280 281 281 282 284 287 290 292 295 297 298 298 297 297 298 298 298 298 300 301 303 304 305 305 305 306 307 307 307 308 309 311 314 316 317 318 319 320 320 320 319 320 321 321 322 322 323 324 324 324 325 326 327 326 324 323 322 322 322 322 321 317 313 309 306 303 302 300 297 292 286 282 279 273 266 260 254 247 239 231 228 228
275 276 278 279 279 280 282 284 286 289 291 294 297 297 297 297 297 298 298 298 299 301 303 304 305 305 306 306 307 307 308 309 310 312 314 316 318 319 320 321 321 321 321 321 321 322 323 323 323 324 324 325 325 326 328 328 327 325 324 324 324 326 327 326 323 318 315 311 307 304 302 299 295 290 284 279 274 266 260 254 247 239 231 226 226
273 274 276 277 278 279 281 283 286 289 291 294 296 296 296 296 297 297 298 299 301 302 304 304 305 306 307 307 307 308 310 311 312 314 317 318 319 320 321 322 322 322 322 322 322 323 323 324 324 324 325 325 326 327 329 330 328 326 326 326 327 329 330 329 327 324 320 316 312 308 304 301 298 294 288 281 275 267 260 254 247 239 232 226 225
270 272 274 275 277 279 281 283 286 289 291 293 295 295 296 296 296 297 299 300 302 303 304 305 306 307 307 308 308 310 311 312 314 316 318 319 320 321 322 322 323 322 323 323 323 324 324 324 325 325 325 327 327 327 330 331 330 328 328 328 330 332 332 331 330 329 326 322 319 314 308 304 300 297 292 286 278 269 260 254 247 239 231 225 224
270 272 274 275 277 278 281 283 286 288 291 293 294 295 295 296 297 298 300 301 303 304 305 307 308 308 308 309 310 311 312 314 316 318 320 320 321 322 322 322 323 323 323 324 324 325 325 325 326 326 326 327 327 328 331 332 331 330 330 331 332 333 333 332 332 333 331 327 325 321 315 308 302 298 295 290 282 273 262 254 247 239 232 225 223
271 273 274 275 277 279 281 284 286 289 291 292 294 294 295 296 297 299 301 303 304 306 307 308 309 309 309 310 310 312 313 315 318 320 320 320 321 321 322 322 323 323 324 324 325 326 326 326 326 327 327 328 328 329 331 333 333 332 333 333 333 334 334 332 332 334 334 331 328 326 322 315 308 301 296 292 286 277 266 257 249 239 232 226 222
272 273 275 276 278 281 283 286 288 289 291 292 293 294 295 297 298 300 302 304 306 308 310 311 311 311 312 312 312 314 315 317 319 320 320 320 321 321 321 322 323 324 324 325 326 326 326 327 327 327 328 328 328 330 332 334 335 334 335 335 334 334 335 334 332 334 336 334 331 329 327 321 315 307 299 294 289 282 273 261 252 242 232 226 223
273 275 276 278 281 283 285 287 288 290 291 292 293 295 296 298 299 301 304 307 309 312 313 313 313 314 314 314 315 316 317 318 319 319 319 320 320 321 322 323 323 324 325 325 326 327 327 327 327 328 328 329 329 330 332 335 336 336 337 336 334 333 335 335 333 332 336 337 333 330 329 325 320 314 305 297 290 285 279 268 258 247 236 228 223
275 277 279 281 283 285 286 287 288 289 291 293 294 296 297 299 301 303 307 309 312 314 315 315 315 315 315 315 316 317 318 319 319 319 319 320 320 321 322 323 323 324 325 326 327 327 327 327 328 328 329 329 330 331 333 335 336 337 337 336 335 333 334 335 334 332 334 337 336 331 329 326 322 317 310 301 293 286 280 273 264 254 242 232 225
278 280 281 282 284 285 286 287 289 291 292 294 295 296 298 300 302 306 309 311 313 315 316 317 317 317 316 316 317 318 319 319 319 319 319 320 320 321 322 322 323 324 325 326 327 328 328 328 328 329 330 330 330 331 334 335 336 338 338 336 335 334 333 335 335 334 332 334 336 333 329 326 322 317 312 304 296 288 282 275 268 259 249 238 229
280 281 281 283 284 285 287 289 291 292 293 294 295 297 300 302 304 307 309 312 315 316 317 318 319 318 317 317 317 319 320 319 318 318 319 320 321 321 322 322 323 324 325 327 328 328 328 328 329 330 330 330 331 332 333 335 336 337 337 336 335 335 335 335 335 334 332 331 333 334 330 325 321 317 313 306 298 290 283 277 269 262 253 244 234
281 281 282 284 285 288 290 292 293 293 294 295 298 300 302 304 305 306 309 313 316 318 319 319 319 318 317 318 319 319 319 318 318 318 319 320 321 321 321 322 323 324 325 327 328 328 328 328 330 331 330 330 331 332 333 334 335 337 337 336 336 337 337 336 334 334 332 330 330 332 332 326 321 317 312 307 302 293 284 276 269 262 255 247 238
280 282 283 285 288 290 291 292 293 295 297 299 301 304 305 305 306 308 311 314 316 318 319 319 318 317 318 318 319 318 318 317 317 318 319 320 321 321 322 322 323 324 326 327 328 328 328 329 330 331 330 330 331 332 333 334 335 337 337 337 337 338 338 337 335 334 333 331 329 329 330 328 323 319 313 307 303 297 288 279 270 263 256 249 242
280 283 285 286 287 289 292 295 298 298 300 303 304 305 305 305 307 309 311 314 316 317 318 318 317 317 318 318 318 317 317 317 317 318 319 320 321 321 322 323 323 324 326 327 327 327 328 329 330 331 330 330 330 331 332 333 335 336 338 338 337 338 338 337 336 335 333 331 329 328 328 328 327 325 319 311 304 298 291 283 274 265 258 252 245
282 286 289 288 288 292 298 303 303 301 302 303 303 303 304 305 306 308 310 312 314 315 317 317 317 317 318 317 317 317 317 317 317 318 319 320 321 321 322 323 323 325 326 326 326 327 327 328 329 331 330 329 330 331 332 333 334 335 337 338 337 337 338 338 337 335 333 330 329 328 327 327 329 329 324 316 307 299 292 286 279 271 263 255 248
283 286 287 287 289 294 300 301 300 299 301 302 301 301 302 303 304 306 308 310 312 314 315 316 317 317 317 316 317 317 316 316 317 318 319 320 320 321 322 322 323 325 325 325 325 326 326 327 329 330 330 329 329 330 332 333 333 334 336 337 337 338 339 339 338 336 334 332 329 329 329 328 328 329 327 320 312 304 295 287 282 276 269 260 251
281 282 282 283 286 290 292 293 293 296 298 298 298 299 300 300 302 304 306 308 311 313 315 316 317 316 316 316 316 316 316 316 316 318 319 319 320 321 321 322 323 324 324 324 324 325 325 326 328 330 330 329 329 330 332 332 332 332 335 338 339 339 339 340 339 338 336 334 331 331 331 329 326 326 326 322 315 308 302 293 286 279 272 266 257
279 279 280 282 284 285 286 287 290 294 295 295 295 296 297 298 299 302 305 308 310 312 314 316 316 315 314 315 315 315 315 315 316 317 318 318 319 320 321 321 322 322 322 322 323 324 324 325 328 330 330 329 328 329 331 331 331 333 336 339 340 340 339 340 341 339 337 335 332 330 330 329 327 324 324 323 318 312 307 298 289 282 275 269 263
277 276 278 279 279 279 281 284 288 291 292 292 292 293 294 296 298 301 304 307 309 311 313 314 314 313 313 314 314 315 315 315 316 317 317 318 318 319 320 320 320 320 321 321 323 323 324 325 327 330 331 329 329 329 330 331 333 335 337 339 339 339 340 341 342 340 337 335 333 330 329 329 328 325 323 323 322 317 312 304 293 286 279 272 267
275 273 273 274 275 276 278 282 286 289 291 292 292 292 294 296 298 301 303 305 307 309 311 312 311 311 312 313 314 315 315 315 316 316 316 317 317 318 318 318 319 319 320 321 322 323 324 325 328 330 331 331 329 330 331 333 334 335 336 337 338 339 340 341 342 340 338 336 334 331 330 330 330 329 326 324 323 320 317 310 300 291 285 278 271
275 275 274 273 275 278 280 284 288 288 288 289 291 293 294 295 297 299 301 302 304 306 308 309 309 310 311 313 314 314 314 315 315 314 315 315 316 316 317 317 318 320 320 321 322 323 324 326 328 330 331 331 331 332 334 333 333 334 335 337 338 339 339 340 341 341 340 337 335 334 332 332 332 332 330 327 325 323 322 318 309 297 288 283 276
275 277 276 274 275 279 283 286 286 283 282 283 286 288 290 292 294 296 298 299 302 304 306 307 308 310 311 312 312 313 313 314 313 313 313 314 314 315 317 318 320 321 320 320 321 323 326 327 328 329 331 332 332 334 334 333 333 334 335 336 338 339 338 338 340 342 341 338 336 334 333 334 333 331 329 328 324 320 318 316 310 300 290 284 280
Height
10816 10816 10815 10814 10813 10813 10812 10810 10809 10807 10807 10807 10806 10803 10801 10798 10796 10796 10793 10790 10788 10787 10786 10786 10784 10782 10780 10778 10776 10775 10773 10770 10768 10766 10763 10762 10760 10757 10754 10753 10751 10749 10747 10745 10742 10740 10737 10734 10732 10730 10727 10724 10721 10718 10715 10711 10707 10704 10702 10699 10696 10693 10689 10685 10682 10680 10678 10676 10672 10668 10667 10665 10663 10661 10659 10657 10655 10654 10653 10652 10651 10650 10651 10652 10652
10811 10811 10810 10809 10809 10808 10808 10807 10805 10804 10803 10803 10802 10800 10798 10796 10794 10794 10791 10788 10787 10785 10784 10782 10780 10778 10776 10774 10772 10770 10768 10766 10764 10761 10758 10756 10755 10752 10750 10747 10745 10743 10741 10739 10737 10734 10732 10729 10727 10724 10721 10718 10715 10712 10709 10705 10702 10698 10695 10693 10690 10687 10683 10679 10675 10673 10671 10669 10665 10662 10660 10659 10657 10655 10653 10651 10650 10648 10647 10647 10646 10646 10646 10647 10648
10807 10806 10805 10804 10803 10803 10802 10802 10801 10800 10799 10798 10797 10795 10794 10792 10791 10791 10789 10787 10784 10782 10781 10778 10776 10773 10772 10770 10767 10765 10763 10761 10759 10757 10754 10751 10748 10747 10745 10743 10740 10738 10736 10733 10731 10729 10726 10724 10721 10719 10716 10713 10709 10706 10702 10699 10696 10692 10688 10685 10683 10680 10676 10672 10669 10666 10664 10662 10659 10655 10654 10653 10651 10648 10647 10646 10644 10643 10642 10641 10641 10641 10641 10642 10643
10802 10801 10800 10799 10798 10797 10797 10796 10796 10795 10794 10792 10791 10790 10789 10788 10787 10786 10785 10783 10780 10778 10776 10774 10772 10769 10767 10765 10763 10761 10759 10757 10754 10752 10750 10747 10744 10741 10739 10737 10735 10733 10731 10728 10725 10723 10721 10718 10715 10712 10710 10707 10703 10700 10696 10693 10690 10686 10682 10678 10676 10674 10670 10665 10662 10659 10657 10655 10652 10649 10648 10647 10645 10642 10640 10640 10639 10637 10636 10636 10636 10636 10636 10636 10637
10798 10797 10795 10794 10793 10793 10792 10791 10791 10790 10789 10787 10786 10785 10784 10782 10781 10780 10779 10777 10775 10773 10771 10768 10767 10765 10762 10760 10758 10756 10754 10752 10749 10747 10745 10743 10740 10737 10734 10732 10729 10727 10725 10723 10720 10717 10715 10712 10709 10706 10703 10700 10696 10693 10689 10686 10683 10680 10676 10671 10668 10666 10663 10658 10654 10652 10650 10648 10645 10641 10640 10641 10639 10636 10634 10633 10632 10631 10630 10630 10630 10630 10630 10631 10632
10793 10793 10791 10790 10789 10788 10788 10787 10786 10785 10784 10782 10781 10780 10778 10777 10775 10774 10773 10771 10769 10767 10765 10763 10761 10759 10757 10755 10753 10751 10749 10746 10744 10742 10740 10737 10735 10733 10730 10728 10725 10721 10718 10716 10714 10712 10709 10706 10702 10699 10696 10693 10689 10686 10683 10678 10675 10672 10668 10664 10660 10657 10655 10651 10647 10643 10642 10640 10638 10634 10632 10633 10631 10629 10628 10627 10626 10625 10624 10623 10624 10624 10625 10625 10627
10788 10789 10787 10786 10785 10784 10784 10783 10782 10781 10779 10778 10776 10774 10772 10771 10769 10768 10767 10765 10763 10761 10760 10758 10756 10755 10753 10750 10748 10746 10744 10741 10739 10736 10734 10732 10729 10727 10724 10722 10720 10717 10713 10710 10708 10705 10703 10699 10696 10692 10689 10685 10682 10678 10675 10671 10667 10663 10660 10656 10653 10649 10647 10644 10640 10636 10633 10632 10630 10626 10624 10624 10623 10621 10621 10620 10619 10618 10617 10617 10617 10618 10619 10619 10621
10784 10785 10784 10782 10781 10780 10780 10779 10778 10776 10774 10773 10770 10768 10766 10765 10764 10762 10761 10760 10758 10756 10754 10753 10751 10750 10748 10746 10743 10741 10739 10736 10734 10732 10729 10727 10724 10721 10719 10716 10714 10711 10708 10705 10702 10699 10696 10693 10689 10686 10682 10678 10674 10670 10667 10663 10659 10655 10652 10648 10645 10641 10639 10636 10633 10629 10626 10623 10622 10619 10615 10615 10614 10613 10613 10612 10611 10610 10610 10610 10609 10610 10612 10613 10614
10781 10781 10780 10779 10778 10776 10776 10774 10773 10771 10769 10767 10764 10762 10760 10759 10758 10757 10756 10755 10753 10752 10750 10748 10747 10745 10743 10741 10739 10736 10734 10731 10729 10727 10724 10722 10719 10716 10713 10710 10708 10705 10702 10699 10696 10693 10689 10686 10682 10678 10675 10671 10667 10663 10659 10655 10651 10648 10644 10640 10637 10633 10630 10628 10625 10622 10618 10615 10613 10611 10608 10606 10605 10604 10604 10604 10603 10602 10602 10602 10602 10602 10604 10606 10607
10779 10778 10777 10776 10774 10772 10771 10769 10768 10765 10763 10760 10758 10756 10755 10754 10753 10752 10751 10750 10748 10747 10746 10744 10742 10740 10738 10736 10734 10731 10729 10727 10724 10722 10719 10716 10714 10711 10708 10705 10702 10698 10695 10692 10689 10686 10682 10679 10675 10671 10667 10663 10659 10655 10651 10647 10643 10640 10636 10632 10629 10625 10622 10619 10616 10613 10610 10607 10605 10603 10600 10598 10596 10595 10594 10595 10594 10594 10594 10594 10594 10594 10596 10598 10600
10776 10775 10773 10772 10770 10768 10767 10765 10763 10760 10757 10755 10753 10751 10750 10749 10748 10747 10746 10745 10744 10742 10741 10739 10737 10736 10734 10732 10729 10727 10724 10721 10719 10716 10714 10711 10708 10705 10702 10699 10696 10692 10689 10685 10682 10679 10675 10672 10668 10664 10660 10655 10651 10647 10643 10639 10635 10631 10628 10624 10621 10617 10613 10610 10607 10603 10601 10597 10595 10593 10591 10589 10588 10586 10585 10585 10585 10584 10585 10585 10585 10586 10587 10590 10592
10773 10771 10769 10767 10765 10764 10762 10761 10759 10756 10753 10751 10749 10748 10746 10745 10744 10743 10742 10741 10740 10738 10736 10735 10733 10731 10729 10727 10724 10722 10719 10716 10714 10711 10708 10706 10703 10700 10697 10693 10689 10685 10682 10678 10675 10671 10668 10664 10660 10656 10652 10648 10644 10639 10635 10631 10627 10623 10619 10616 10612 10608 10604 10601 10597 10594 10591 10588 10586 10583 10581 10580 10578 10577 10576 10576 10576 10575 10575 10576 10577 10578 10579 10581 10583
10768 10767 10765 10763 10761 10759 10758 10756 10754 10752 10750 10748 10746 10745 10743 10742 10740 10739 10738 10736 10735 10734 10732 10730 10728 10726 10724 10722 10719 10717 10714 10711 10709 10706 10703 10700 10697 10694 10691 10687 10683 10679 10675 10671 10668 10664 10660 10656 10652 10648 10644 10640 10636 10632 10627 10623 10619 10614 10610 10607 10603 10599 10595 10591 10588 10584 10582 10579 10576 10573 10571 10569 10568 10567 10566 10566 10566 10565 10565 10566 10568 10569 10570 10572 10574
10763 10762 10760 10758 10757 10755 10753 10751 10750 10748 10747 10745 10743 10742 10740 10738 10736 10735 10734 10732 10731 10729 10728 10726 10724 10722 10719 10717 10714 10712 10709 10706 10703 10701 10698 10695 10692 10688 10685 10681 10677 10673 10669 10665 10660 10656 10652 10647 10643 10639 10635 10631 10628 10624 10620 10615 10610 10606 10601 10597 10593 10589 10585 10581 10578 10574 10571 10568 10565 10563 10561 10559 10557 10556 10555 10555 10555 10555 10555 10556 10558 10560 10561 10563 10565
10759 10758 10756 10754 10752 10750 10749 10747 10746 10745 10743 10742 10740 10738 10737 10735 10733 10731 10730 10728 10727 10725 10723 10721 10719 10717 10714 10712 10709 10706 10704 10702 10699 10696 10693 10690 10686 10683 10679 10675 10671 10667 10663 10658 10654 10649 10645 10640 10635 10631 10627 10624 10620 10616 10611 10607 10602 10597 10592 10587 10583 10578 10574 10570 10566 10563 10560 10557 10554 10552 10549 10547 10546 10545 10544 10544 10544 10545 10545 10545 10547 10549 10551 10553 10555
10755 10753 10751 10750 10748 10746 10744 10743 10742 10741 10739 10738 10736 10735 10733 10731 10729 10728 10726 10724 10722 10721 10719 10717 10715 10713 10710 10708 10704 10701 10698 10696 10694 10691 10688 10684 10681 10677 10673 10669 10665 10660 10656 10652 10647 10642 10637 10633 10628 10624 10620 10616 10612 10607 10603 10598 10593 10588 10583 10578 10573 10568 10564 10560 10555 10551 10548 10545 10542 10540 10538 10536 10534 10533 10532 10532 10533 10534 10534 10534 10536 10539 10541 10543 10545
10750 10748 10747 10745 10743 10741 10740 10739 10738 10736 10735 10734 10733 10731 10729 10727 10725 10723 10721 10720 10718 10716 10714 10712 10710 10708 10706 10704 10701 10698 10694 10692 10689 10685 10682 10679 10675 10671 10667 10663 10658 10654 10649 10645 10640 10635 10630 10625 10620 10616 10612 10608 10604 10599 10594 10589 10584 10579 10574 10569 10564 10559 10554 10549 10544 10540 10536 10533 10530 10527 10525 10524 10523 10522 10521 10520 10521 10522 10523 10524 10526 10528 10530 10532 10535
10745 10743 10742 10740 10739 10737 10736 10735 10733 10732 10731 10730 10728 10726 10725 10723 10721 10719 10717 10715 10713 10711 10709 10707 10706 10703 10701 10699 10697 10695 10691 10688 10685 10681 10678 10674 10670 10666 10661 10657 10652 10647 10642 10638 10633 10629 10624 10619 10614 10610 10605 10601 10596 10591 10586 10581 10576 10571 10566 10561 10555 10549 10544 10538 10533 10528 10524 10520 10517 10514 10512 10511 10510 10509 10509 10509 10509 10509 10511 10513 10515 10517 10519 10522 10525
10741 10739 10737 10736 10735 10733 10731 10730 10729 10728 10727 10725 10724 10722 10720 10718 10716 10714 10712 10710 10708 10706 10705 10703 10701 10699 10697 10694 10692 10689 10687 10684 10681 10678 10674 10669 10665 10660 10656 10651 10646 10641 10636 10632 10627 10622 10617 10613 10608 10603 10598 10593 10588 10583 10578 10573 10569 10564 10558 10552 10546 10540 10534 10528 10522 10517 10512 10507 10503 10500 10498 10497 10496 10495 10495 10496 10496 10497 10498 10500 10504 10506 10508 10512 10515
10736 10735 10733 10732 10730 10728 10727 10726 10725 10723 10722 10720 10719 10717 10716 10713 10711 10709 10707 10705 10703 10702 10700 10698 10696 10694 10692 10689 10686 10684 10681 10678 10675 10673 10670 10665 10659 10653 10648 10643 10639 10635 10630 10625 10620 10615 10610 10605 10601 10596 10591 10586 10581 10575 10571 10566 10561 10556 10549 10542 10536 10530 10524 10518 10512 10506 10500 10494 10489 10486 10484 10483 10482 10482 10482 10482 10483 10485 10486 10487 10491 10494 10497 10501 10505
10731 10730 10729 10727 10726 10724 10723 10722 10720 10719 10717 10716 10714 10713 10711 10709 10707 10705 10703 10701 10699 10698 10696 10694 10692 10689 10686 10683 10680 10678 10675 10672 10669 10666 10663 10660 10655 10649 10642 10635 10630 10625 10621 10617 10612 10606 10600 10595 10591 10587 10582 10578 10573 10568 10563 10559 10553 10546 10539 10532 10525 10519 10513 10507 10500 10494 10488 10482 10477 10474 10471 10469 10469 10469 10469 10469 10470 10472 10474 10475 10478 10482 10486 10490 10493
10726 10725 10725 10723 10721 10720 10719 10718 10717 10715 10713 10712 10710 10708 10707 10705 10702 10700 10699 10697 10695 10694 10692 10689 10687 10684 10681 10678 10675 10672 10668 10665 10662 10659 10655 10651 10647 10643 10638 10632 10625 10619 10614 10610 10605 10600 10594 10588 10583 10578 10574 10570 10565 10560 10555 10550 10544 10537 10530 10522 10515 10508 10501 10494 10487 10481 10475 10470 10466 10462 10460 10458 10456 10456 10457 10458 10459 10460 10462 10464 10466 10470 10474 10478 10481
10722 10721 10720 10718 10717 10716 10715 10714 10712 10711 10709 10708 10706 10704 10702 10700 10698 10696 10695 10693 10692 10690 10687 10684 10682 10679 10675 10672 10669 10666 10662 10659 10655 10651 10647 10642 10639 10634 10630 10625 10621 10615 10608 10603 10598 10593 10588 10583 10578 10573 10568 10563 10557 10552 10547 10541 10535 10528 10521 10513 10506 10498 10491 10483 10475 10469 10463 10458 10454 10451 10449 10448 10446 10445 10445 10446 10447 10449 10451 10453 10455 10458 10462 10467 10471
10718 10717 10715 10714 10713 10711 10710 10709 10708 10706 10705 10703 10702 10700 10698 10696 10694 10693 10691 10689 10687 10685 10682 10679 10676 10673 10670 10666 10663 10659 10656 10652 10648 10643 10639 10635 10631 10626 10622 10617 10613 10609 10603 10595 10590 10585 10580 10575 10570 10566 10561 10555 10549 10543 10538 10532 10525 10518 10510 10503 10495 10488 10481 10473 10465 10459 10453 10447 10443 10440 10438 10437 10436 10435 10435 10434 10435 10438 10440 10442 10445 10447 10451 10456 10460
10713 10712 10710 10709 10708 10707 10706 10705 10703 10702 10700 10699 10697 10696 10694 10692 10691 10689 10687 10685 10683 10680 10677 10674 10670 10667 10663 10660 10656 10652 10649 10644 10640 10636 10632 10628 10623 10619 10615 10610 10605 10601 10597 10590 10582 10578 10574 10568 10561 10556 10551 10546 10539 10533 10528 10521 10514 10507 10499 10492 10485 10478 10471 10463 10456 10450 10444 10438 10433 10430 10428 10426 10425 10425 10425 10425 10425 10426 10429 10431 10433 10436 10439 10444 10449
10708 10707 10705 10704 10703 10703 10701 10700 10698 10697 10696 10694 10693 10691 10690 10688 10686 10684 10682 10680 10677 10674 10671 10668 10665 10661 10657 10653 10650 10646 10642 10637 10633 10629 10625 10621 10617 10613 10609 10604 10597 10592 10588 10583 10576 10569 10565 10561 10554 10547 10541 10536 10530 10523 10518 10511 10504 10496 10489 10483 10476 10468 10461 10454 10446 10441 10436 10428 10423 10422 10420 10417 10415 10414 10414 10415 10415 10416 10418 10421 10423 10426 10429 10433 10438
10703 10702 10701 10700 10699 10698 10696 10695 10694 10692 10691 10690 10688 10687 10685 10683 10681 10679 10677 10675 10672 10669 10666 10663 10659 10655 10651 10648 10644 10639 10635 10631 10627 10623 10619 10614 10610 10606 10602 10597 10592 10585 10579 10575 10571 10564 10557 10552 10547 10540 10532 10526 10520 10513 10507 10501 10493 10485 10478 10472 10466 10459 10452 10445 10438 10432 10426 10419 10414 10413 10412 10409 10406 10404 10404 10406 10406 10407 10408 10410 10413 10416 10419 10423 10427
10698 10697 10696 10695 10694 10693 10691 10690 10689 10688 10687 10685 10684 10682 10680 10678 10676 10674 10672 10670 10667 10664 10660 10657 10653 10649 10646 10642 10637 10633 10629 10625 10621 10617 10613 10608 10604 10600 10595 10590 10585 10580 10573 10567 10563 10558 10552 10545 10539 10533 10525 10517 10510 10503 10497 10490 10482 10474 10468 10463 10458 10452 10445 10439 10431 10424 10418 10410 10405 10404 10403 10401 10398 10396 10396 10397 10398 10398 10399 10401 10404 10407 10410 10413 10417
10694 10692 10692 10691 10690 10688 10687 10685 10684 10683 10682 10680 10679 10677 10675 10674 10671 10669 10667 10664 10661 10658 10655 10651 10648 10644 10640 10635 10631 10627 10623 10619 10615 10611 10607 10603 10598 10593 10588 10584 10578 10573 10566 10560 10554 10550 10545 10538 10530 10524 10517 10510 10502 10495 10488 10481 10473 10465 10460 10456 10452 10445 10439 10433 10426 10420 10412 10404 10398 10396 10395 10393 10391 10389 10388 10388 10389 10390 10391 10392 10395 10398 10402 10405 10409
10689 10688 10687 10687 10685 10683 10682 10681 10680 10678 10677 10675 10674 10672 10670 10668 10666 10664 10662 10659 10656 10652 10649 10646 10642 10638 10634 10629 10625 10622 10618 10614 10609 10605 10601 10596 10592 10587 10582 10577 10572 10566 10560 10554 10548 10542 10537 10531 10523 10516 10509 10502 10495 10488 10481 10473 10466 10458 10452 10448 10444 10438 10432 10425 10419 10413 10407 10400 10392 10389 10388 10385 10384 10382 10381 10381 10382 10382 10383 10384 10387 10390 10394 10397 10401
10685 10684 10683 10682 10680 10678 10677 10676 10675 10673 10672 10670 10669 10667 10665 10663 10660 10658 10656 10653 10650 10647 10644 10640 10636 10632 10628 10624 10620 10616 10612 10608 10604 10600 10595 10591 10586 10581 10576 10571 10566 10560 10555 10549 10543 10537 10530 10524 10517 10509 10502 10495 10488 10481 10474 10466 10458 10451 10444 10439 10434 10430 10424 10418 10412 10406 10401 10395 10388 10384 10381 10379 10377 10376 10375 10374 10375 10375 10376 10377 10379 10383 10386 10389 10392
10680 10680 10678 10677 10675 10674 10672 10671 10670 10668 10667 10665 10664 10662 10660 10657 10655 10652 10650 10647 10645 10642 10638 10635 10631 10626 10622 10619 10615 10611 10607 10603 10599 10594 10590 10585 10580 10575 10570 10565 10560 10555 10549 10544 10538 10531 10525 10518 10512 10504 10496 10489 10482 10475 10468 10459 10451 10443 10436 10430 10425 10421 10416 10411 10405 10400 10395 10390 10384 10378 10375 10373 10371 10369 10369 10368 10368 10369 10369 10370 10372 10375 10379 10382 10385
10676 10675 10673 10672 10670 10669 10667 10666 10665 10663 10662 10660 10659 10656 10654 10652 10649 10647 10644 10642 10639 10636 10633 10629 10625 10621 10617 10614 10610 10606 10602 10598 10594 10589 10584 10580 10575 10570 10565 10560 10554 10549 10543 10537 10532 10525 10518 10512 10506 10499 10491 10484 10477 10470 10464 10455 10445 10437 10429 10422 10417 10412 10407 10403 10399 10394 10388 10384 10379 10374 10370 10367 10365 10364 10363 10362 10363 10363 10363 10364 10366 10368 10372 10375 10377
10670 10669 10668 10667 10665 10664 10663 10661 10660 10658 10656 10655 10653 10651 10648 10646 10643 10641 10639 10637 10634 10631 10627 10624 10620 10616 10613 10609 10605 10601 10597 10593 10588 10584 10579 10575 10570 10565 10560 10555 10549 10544 10538 10532 10526 10520 10513 10506 10499 10492 10485 10479 10471 10465 10459 10451 10442 10433 10424 10416 10410 10405 10399 10395 10392 10388 10382 10378 10375 10370 10365 10362 10360 10359 10357 10357 10357 10357 10358 10358 10360 10362 10365 10368 10371
10665 10664 10663 10662 10660 10659 10658 10656 10655 10653 10651 10649 10647 10645 10643 10641 10638 10636 10634 10632 10629 10625 10622 10619 10615 10611 10608 10604 10600 10596 10592 10588 10583 10579 10575 10570 10566 10561 10556 10550 10545 10540 10534 10528 10522 10515 10508 10501 10494 10487 10480 10474 10467 10459 10452 10446 10438 10429 10420 10411 10404 10400 10394 10387 10384 10382 10377 10372 10369 10366 10361 10358 10356 10354 10353 10352 10351 10352 10353 10353 10354 10356 10359 10361 10364
10660 10659 10658 10657 10655 10654 10653 10651 10649 10647 10646 10644 10642 10640 10638 10636 10634 10631 10629 10627 10624 10620 10617 10614 10610 10607 10603 10598 10594 10590 10587 10582 10578 10574 10570 10565 10561 10556 10551 10546 10541 10536 10530 10524 10518 10512 10505 10497 10490 10483 10476 10469 10462 10454 10447 10441 10433 10424 10416 10408 10400 10395 10391 10384 10376 10375 10374 10368 10363 10361 10358 10354 10352 10350 10349 10347 10347 10347 10348 10349 10350 10351 10353 10355 10357
10655 10654 10653 10652 10651 10649 10648 10646 10644 10642 10640 10639 10637 10635 10633 10631 10629 10627 10625 10622 10619 10616 10612 10609 10606 10602 10597 10593 10589 10585 10581 10577 10573 10569 10565 10560 10556 10551 10547 10542 10537 10531 10526 10520 10514 10508 10501 10494 10486 10479 10472 10464 10457 10449 10443 10436 10429 10421 10413 10405 10397 10391 10388 10382 10373 10368 10369 10366 10360 10356 10354 10351 10348 10346 10344 10343 10342 10342 10343 10344 10345 10347 10348 10349 10351
10650 10649 10648 10647 10646 10644 10642 10641 10639 10637 10635 10634 10632 10630 10628 10626 10624 10622 10620 10617 10614 10611 10608 10604 10601 10597 10592 10588 10584 10580 10576 10572 10567 10563 10559 10555 10551 10546 10542 10537 10532 10527 10522 10516 10510 10503 10496 10489 10482 10475 10467 10459 10452 10445 10438 10432 10426 10420 10412 10403 10395 10387 10383 10381 10374 10365 10362 10363 10359 10353 10350 10347 10344 10342 10340 10338 10337 10337 10338 10339 10340 10342 10343 10344 10346
10645 10645 10644 10642 10641 10639 10637 10636 10634 10632 10631 10629 10627 10625 10624 10622 10620 10618 10615 10613 10610 10607 10603 10600 10596 10592 10588 10583 10579 10575 10571 10566 10562 10558 10555 10550 10546 10541 10537 10532 10527 10522 10517 10511 10505 10497 10491 10484 10477 10470 10463 10455 10448 10441 10434 10428 10420 10414 10409 10402 10395 10387 10379 10376 10372 10365 10359 10358 10356 10352 10346 10343 10340 10337 10335 10334 10332 10332 10332 10334 10335 10336 10338 10340 10341
10641 10640 10639 10637 10636 10634 10633 10632 10630 10628 10626 10624 10622 10621 10619 10617 10615 10613 10611 10609 10605 10602 10599 10595 10592 10588 10583 10579 10574 10570 10566 10562 10558 10554 10550 10545 10541 10536 10531 10527 10522 10517 10512 10506 10499 10493 10486 10479 10472 10466 10458 10451 10443 10437 10430 10425 10418 10411 10405 10399 10393 10386 10377 10371 10368 10364 10357 10353 10352 10351 10346 10340 10336 10332 10329 10328 10327 10327 10326 10327 10329 10330 10332 10334 10336
10636 10635 10634 10632 10631 10630 10629 10627 10625 10623 10622 10620 10618 10616 10614 10612 10611 10609 10607 10604 10601 10597 10594 10591 10587 10583 10579 10574 10570 10565 10561 10557 10553 10549 10545 10540 10536 10531 10526 10521 10516 10511 10506 10500 10494 10488 10482 10475 10468 10461 10454 10447 10440 10434 10428 10422 10417 10411 10404 10396 10389 10383 10376 10368 10363 10360 10354 10348 10345 10346 10345 10340 10333 10329 10325 10323 10321 10321 10321 10321 10322 10323 10324 10326 10328
10630 10630 10629 10628 10627 10626 10624 10623 10621 10619 10617 10615 10613 10611 10609 10608 10606 10603 10601 10599 10596 10593 10589 10586 10583 10579 10575 10570 10565 10561 10557 10552 10548 10544 10539 10535 10531 10526 10521 10516 10511 10506 10500 10494 10488 10483 10477 10471 10465 10458 10451 10444 10437 10431 10425 10419 10414 10408 10401 10394 10387 10381 10375 10368 10361 10356 10352 10345 10340 10338 10339 10338 10332 10326 10322 10319 10316 10315 10314 10314 10315 10316 10317 10319 10321
10626 10625 10625 10624 10623 10621 10620 10618 10617 10615 10613 10611 10609 10606 10604 10602 10600 10598 10596 10593 10591 10588 10585 10582 10578 10574 10571 10566 10562 10557 10552 10547 10543 10538 10534 10530 10525 10520 10515 10510 10505 10500 10494 10488 10482 10477 10472 10467 10461 10455 10448 10441 10435 10429 10423 10416 10410 10404 10398 10392 10385 10379 10374 10369 10362 10356 10350 10345 10338 10333 10331 10331 10329 10324 10319 10315 10312 10309 10308 10308 10308 10309 10311 10312 10314
10622 10622 10621 10620 10619 10617 10616 10615 10612 10610 10608 10606 10604 10601 10599 10596 10594 10592 10591 10588 10586 10583 10580 10577 10573 10570 10566 10562 10558 10553 10548 10543 10538 10533 10529 10524 10519 10514 10509 10505 10500 10495 10489 10483 10477 10472 10467 10462 10457 10451 10445 10438 10432 10426 10420 10414 10408 10402 10396 10390 10383 10376 10371 10366 10361 10356 10350 10343 10337 10330 10325 10323 10323 10321 10316 10311 10308 10305 10303 10302 10301 10302 10304 10306 10307
10619 10619 10618 10617 10615 10614 10613 10611 10609 10606 10604 10602 10599 10596 10594 10591 10589 10587 10586 10584 10581 10578 10575 10572 10568 10565 10562 10558 10554 10549 10544 10539 10534 10529 10525 10520 10515 10510 10504 10499 10494 10489 10484 10479 10473 10468 10463 10458 10453 10448 10442 10436 10430 10423 10417 10411 10405 10400 10394 10388 10381 10373 10367 10362 10358 10353 10348 10342 10335 10328 10321 10317 10315 10315 10312 10307 10303 10300 10298 10296 10295 10296 10296 10298 10300
10616 10615 10614 10613 10612 10611 10610 10608 10605 10603 10600 10597 10594 10591 10589 10587 10584 10583 10581 10578 10576 10573 10570 10567 10563 10560 10556 10553 10549 10544 10540 10535 10530 10525 10521 10516 10511 10506 10501 10495 10490 10484 10479 10474 10469 10464 10459 10454 10450 10444 10438 10432 10426 10420 10414 10409 10403 10398 10392 10385 10378 10371 10364 10358 10353 10349 10345 10340 10333 10326 10320 10314 10310 10308 10307 10303 10298 10296 10293 10290 10289 10289 10289 10290 10291
10612 10611 10610 10609 10607 10607 10605 10604 10602 10599 10596 10592 10589 10586 10584 10582 10580 10578 10576 10573 10570 10567 10564 10561 10558 10555 10551 10548 10544 10539 10535 10530 10525 10521 10517 10512 10508 10503 10498 10493 10487 10482 10477 10472 10467 10461 10456 10450 10446 10440 10435 10429 10423 10417 10412 10406 10400 10392 10386 10380 10374 10368 10362 10355 10349 10344 10340 10335 10330 10324 10318 10312 10306 10302 10301 10298 10294 10291 10289 10286 10282 10282 10282 10282 10283
10607 10606 10605 10604 10603 10602 10601 10599 10598 10595 10591 10587 10584 10582 10579 10577 10575 10572 10570 10568 10565 10562 10559 10556 10553 10549 10546 10542 10538 10534 10529 10525 10520 10516 10512 10508 10504 10499 10494 10489 10484 10479 10473 10468 10464 10458 10452 10447 10441 10436 10431 10425 10419 10413 10407 10401 10395 10387 10380 10375 10370 10365 10359 10353 10346 10341 10337 10332 10327 10321 10316 10310 10304 10297 10293 10292 10289 10286 10283 10280 10277 10275 10275 10276 10276
10602 10601 10600 10599 10598 10597 10596 10595 10594 10591 10586 10581 10578 10576 10573 10571 10569 10567 10564 10562 10559 10556 10554 10551 10548 10544 10541 10537 10533 10528 10523 10519 10514 10510 10506 10503 10499 10495 10490 10485 10480 10474 10468 10463 10459 10453 10447 10442 10436 10431 10426 10420 10414 10408 10401 10395 10389 10384 10378 10373 10367 10362 10357 10351 10345 10339 10334 10329 10324 10319 10313 10307 10302 10296 10288 10284 10282 10281 10279 10276 10273 10270 10270 10270 10270
10596 10595 10596 10595 10594 10592 10591 10591 10590 10586 10581 10577 10574 10571 10568 10566 10564 10561 10559 10557 10554 10552 10549 10546 10543 10539 10535 10531 10526 10522 10517 10513 10508 10504 10500 10497 10493 10490 10486 10481 10475 10469 10463 10458 10454 10449 10443 10437 10432 10426 10421 10415 10408 10402 10395 10389 10384 10380 10376 10371 10365 10358 10353 10348 10344 10338 10332 10326 10321 10317 10311 10304 10299 10294 10288 10281 10274 10272 10272 10272 10269 10266 10265 10265 10265
10592 10590 10591 10591 10589 10588 10587 10587 10584 10580 10575 10573 10571 10568 10565 10562 10559 10557 10555 10552 10550 10547 10544 10541 10537 10533 10529 10525 10521 10516 10512 10507 10502 10497 10493 10490 10487 10484 10480 10475 10470 10464 10458 10453 10448 10443 10437 10431 10426 10420 10415 10408 10402 10396 10390 10385 10380 10375 10371 10366 10361 10356 10350 10344 10340 10336 10331 10325 10319 10314 10309 10303 10296 10292 10289 10284 10277 10270 10267 10267 10265 10262 10260 10260 10260